Powrót do katalogu

FENGYUN 1C DEB

AktywnySSO
NORAD 33660·DEBRIS·🇨🇳 China

Wystrzelony May 10, 1999 z Taiyuan Satellite Launch Center

Loading…

Następne Przeloty (najbliższe 24 godziny)

TLE

ŚwieżeSource: Space-Track

Epoka: Sep 12, 2026, 12:13 UTC

1 33660U 99025DEV 26255.50928841  .00000110  00000-0  11177-3 0  9992
2 33660  98.6372 153.4524 0109279 211.6399 325.4163 13.92017363948727

Śledź FENGYUN 1C DEB w czasie rzeczywistym z AllMySat

Download on the App Store